Home   Weather   Lynchburg   Past weeks

Flag for USA Past Weather in Lynchburg, Virginia, USA — Yesterday and Last 2 Weeks

Now
80 °F

Scattered clouds.


Feels Like: 81 °F
Forecast: 59 / 83 °F
Wind: 3 mph from South

Location: Lynchburg Regional Airport

Current Time: Apr 28, 2017 at 3:54:55 pm

Latest Report: Apr 28, 2017 at 2:54 pm


Visibility: 10 mi

Pressure: 30.03 "Hg

Humidity: 52%

Dew Point: 61 °F

Location of LynchburgLocation

Past Weather in Lynchburg — Graph

°F

Lynchburg Temperature Yesterday

Maximum temperature yesterday: 79 °F (at 2:54 pm)
Minimum temperature yesterday: 55 °F (at 5:23 am)
Average temperature yesterday: 65 °F

High & Low Weather Summary for the Past Weeks

 TemperatureHumidityPressure
High84 °F (Apr 21, 3:54 pm)100% (Apr 19, 10:05 pm)30.42 "Hg (Apr 19, 10:05 pm)
Low47 °F (Apr 26, 2:12 am)30% (Apr 13, 1:54 pm)29.70 "Hg (Apr 25, 12:54 pm)
Average61 °F78%30.03 "Hg
* Reported Apr 13 1:54 pm — Apr 28 1:54 pm, Lynchburg, Weather by CustomWeather, © 2017

Note: Actual official high and low records may vary slightly from our data, if they occured in-between our weather recording intervals... More about our weather records

Advertising

Lynchburg Weather History for the Previous 24 Hours

Scroll right to see more
 ConditionsComfort  
Time TempWeatherWind HumidityBarometerVisibility
1:54 pm
Fri, Apr 28
80 °FSunny.5 mph45%30.05 "Hg10 mi
12:54 pm79 °FPassing clouds.6 mph48%30.06 "Hg10 mi
11:54 am77 °FSunny.6 mph52%30.06 "Hg10 mi
10:54 am76 °FSunny.3 mph60%30.05 "Hg10 mi
9:54 am71 °FSunny.No wind71%30.04 "Hg10 mi
8:54 am66 °FSunny.6 mph87%30.03 "Hg10 mi
7:54 am60 °FSunny.No wind100%30.02 "Hg10 mi
7:21 am58 °FFog.No wind100%30.03 "Hg10 mi
7:01 am56 °FFog.No wind100%30.03 "Hg1 mi
6:27 am54 °FFog.No wind100%30.00 "Hg0 mi
6:12 am54 °FFog.No wind97%30.00 "Hg1 mi
6:04 am55 °FFog.No wind96%30.00 "Hg2 mi
6:02 am55 °FFog.No wind96%30.00 "Hg1 mi
5:38 am55 °FFog.5 mph100%29.99 "Hg0 mi
5:08 am55 °FFog.No wind100%29.98 "Hg1 mi
5:01 am57 °FFog.3 mph96%29.98 "Hg3 mi
4:37 am57 °FFog.No wind96%29.96 "Hg1 mi
4:23 am56 °FFog.3 mph97%29.96 "Hg2 mi
2:54 am57 °FFog.3 mph96%29.92 "Hg5 mi
1:54 am59 °FPassing clouds.No wind96%29.90 "Hg7 mi
12:54 am61 °FPassing clouds.No wind93%29.90 "Hg9 mi
11:54 pm
Thu, Apr 27
64 °FMostly cloudy.3 mph87%29.88 "Hg10 mi
10:54 pm66 °FPassing clouds.5 mph78%29.88 "Hg10 mi
9:54 pm68 °FPassing clouds.No wind70%29.88 "Hg10 mi
8:54 pm70 °FOvercast.3 mph64%29.85 "Hg10 mi
7:54 pm72 °FOvercast.13 mph57%29.84 "Hg10 mi
6:54 pm72 °FLight rain. Mostly cloudy.9 mph59%29.83 "Hg10 mi
5:54 pm75 °FOvercast.10 mph52%29.81 "Hg8 mi
4:54 pm77 °FOvercast.15 mph48%29.80 "Hg10 mi
3:54 pm77 °FPassing clouds.14 mph48%29.80 "Hg10 mi
Weather by CustomWeather, © 2017

See weather overviewHow to use our weather pages